Weather in Colmar

France     48°04′48″N   7°21′53″E
temp.,
°C
wind,
m/s
gust,
m/s
humid.,
%
clouds,
%
prec.,
mm/h
press.,
hPa
HPBL,
m
16 june, wed
wed1623:00+19wnw227496 0.0 101720
02:00+18wnw2171100 0.0 101712
05:00+17wnw1174100 0.0 101611
08:00+20se007197 0.0 1015115
11:00+25se225467 0.0 1014649
14:00+28se334799 0.0 10131340
17:00+28ese125094 0.0 10121155
20:00+24nnw117221 0.0 101214
17 june, thu
thu1723:00+20wnw227355 0.0 101314
02:00+19w2176100 0.0 101313
05:00+18wsw228183 0.0 101316
08:00+21s1275100 0.0 101489
11:00+26sse2259100 0.0 1014727
14:00+29ese2247100 0.0 10131498
17:00+29e224565 0.0 10121001
20:00+26n2272100 0.0 101128
18 june, fri
fri1823:00+21w32735 0.1 101333
02:00+19w358171 0.4 101488
05:00+17nnw1190100 0.3 101420
08:00+19wnw0189100 0.4 101463
11:00+26se116150 0.2 1014569
14:00+29e12455 0.6 10131471
17:00+29s1151100 0.1 10131440
20:00+22wnw228499 1.8 101419
19 june, sat
sat1923:00+18wsw229224 0.8 101721
02:00+17wsw22935 1.0 101624
05:00+16wnw119366 0.0 101713
08:00+19e0089100 0.0 1017138
11:00+24ese116799 0.0 1017656
14:00+27e235528 0.0 10151114
17:00+28e2248100 0.0 10131010
20:00+24nne1280100 0.0 101246
20 june, sun
sun2023:00+21wnw2280100 0.0 101127
02:00+20w2280100 0.0 101118
05:00+19sw1289100 1.0 101114
08:00+21nne1290100 1.9 101088
11:00+26nne236360 0.1 1010663
14:00+22w2480100 8.3 1011465
17:00+23wnw3771100 1.2 1011985
20:00+18sse2298100 4.4 1011128